[[{"header":{"parameterUnit":"m.s-1","parameterCategory":1,"la1":30.2991,"la2":30.254,"lo1":-89.0895,"lo2":-89.0444,"dy":0.0017,"dx":0.0017,"nx":28,"ny":28,"refTime":"2025-04-10T09:00:00:Z","depth":0,"parameterNumber":2,"parameterNumberName":"U-component_of_WINDS"},"data":[0,0,0,0,0,0,0,0,0,0,0,0,0,0,0,0,0,0,0,0,0,0,0,0,0,0,0,0,0,0,0,0,0,0,0,0,0,0,0,0,0,0,0,0,0,0,0,0,0,0,0,0,0,0,0,0,0,0,3.7457,3.7458,0,3.7495,3.7496,3.7496,3.7442,3.744,3.7438,3.7436,3.7474,3.7477,3.7479,0,0,0,0,0,0,0,0,0,0,0,0,0,3.7338,3.7341,3.7457,3.7458,3.7458,3.7495,3.7496,3.7496,3.7442,3.744,3.7438,3.7435,3.7473,3.7476,3.748,0,0,0,0,0,0,0,0,0,0,0,0,0,3.7385,3.7342,3.7457,3.7436,3.7434,3.7495,3.7496,3.7496,3.7443,3.744,3.7437,3.7434,3.7472,3.7476,3.748,3.7563,0,0,3.7493,3.7495,0,0,0,0,0,0,0,0,3.7382,3.7389,3.7438,3.7437,3.7436,3.7461,3.7467,3.7519,3.7443,3.7439,3.7436,3.7433,3.7472,3.7476,3.7489,3.7565,3.7567,3.7493,3.7496,3.7498,3.7499,0,0,0,0,0,0,0,3.7379,3.7387,3.7472,3.7439,3.7438,3.7424,3.7428,3.7477,3.7471,3.744,3.7436,3.7441,3.7471,3.7485,3.749,3.7567,3.7493,3.7497,3.7499,3.7501,3.7715,3.7718,0,0,0,0,0,0,3.7378,3.7385,3.7471,3.7473,3.7401,3.7429,3.7433,3.7456,3.7471,3.747,3.7443,3.7438,3.748,3.7485,3.7491,3.759,3.7498,3.7501,3.7504,3.7712,3.7716,3.772,0,0,0,0,0,0,3.7376,3.7386,3.7469,3.7428,3.7438,3.7434,3.746,3.7458,3.7473,3.7473,3.7472,3.746,3.7478,3.7485,3.7546,3.7591,3.7503,3.7507,3.7709,3.7713,3.7718,3.779,0,0,0,0,0,0,3.7373,3.7386,3.7417,3.7429,3.744,3.7524,3.7463,3.7461,3.748,3.7474,3.7488,3.7488,3.7476,3.754,3.755,3.7595,3.751,3.7704,3.7711,3.7716,3.7783,3.7796,3.7807,0,0,0,0,0,3.7369,3.7435,3.7419,3.743,3.7479,3.7527,3.7533,3.7518,3.7484,3.7516,3.7517,3.7487,3.7585,3.7547,3.7558,3.7605,3.7702,3.7709,3.7716,3.7778,3.7794,3.7807,0,0,0,0,0,0,3.7427,3.7436,3.7418,3.7491,3.7509,3.7517,3.7557,3.7535,3.7563,3.7555,3.7536,3.7539,3.7605,3.7611,3.7569,3.7687,3.7637,3.7647,3.7681,3.7696,3.7708,3.7705,3.7514,0,0,0,0,0,3.7449,3.7487,3.7493,3.7556,3.7566,3.756,3.758,3.7568,3.7585,3.7592,3.7597,3.7615,3.765,3.7673,3.7705,3.7784,3.7787,3.7822,3.7834,3.7844,3.7852,3.7896,3.7912,3.7743,3.7743,3.7743,0,0,3.7493,3.7503,3.7528,3.7568,3.758,3.7621,3.7567,3.7611,3.7641,3.7599,3.7657,3.7662,3.7681,3.7752,3.7784,3.7759,3.79,3.7853,3.7861,3.7864,3.7905,3.7921,3.7936,3.7748,3.7747,3.7746,0,0,3.7595,3.7606,3.766,3.7675,3.7694,3.7691,3.7704,3.7717,3.7719,3.7778,3.7748,3.7783,3.7843,3.7858,3.7874,3.7985,3.796,3.7996,3.8059,3.8102,3.8115,3.8127,3.8168,3.8182,3.8004,3.8005,3.8005,0,3.7647,3.7707,3.7691,3.7739,3.7758,3.7723,3.7779,3.7793,3.7822,3.7836,3.7808,3.7884,3.7894,3.797,3.7997,3.8011,3.8026,3.7994,3.8115,3.8126,3.8137,3.8176,3.8191,3.8009,3.8008,3.8008,3.8007,0,3.7771,3.7813,3.7855,3.7886,3.791,3.7961,3.7953,3.798,3.7966,3.7965,3.8027,3.8038,3.8073,3.809,3.8076,3.8164,3.8148,3.8118,3.8067,3.8158,3.8194,3.8208,3.8015,3.8013,3.8012,3.8011,0,0,3.7909,3.7932,3.7948,3.7962,3.7983,3.8015,3.8066,3.8101,3.8124,3.8146,3.8189,3.8241,3.8215,3.8233,3.822,3.8258,3.8347,3.8224,3.8224,3.8247,3.8447,3.8469,3.8487,3.8331,3.8334,3.8336,3.8445,0,3.8011,3.8099,3.8087,3.8172,3.8211,3.818,3.8225,3.8243,3.8244,3.8278,3.8279,3.8318,3.8279,3.829,3.8326,3.8329,3.8387,3.8321,3.8371,3.8373,3.8367,3.8505,3.8529,3.8631,3.8459,3.8461,3.8463,0,3.8142,3.817,3.8259,3.8276,3.8292,3.8332,3.8364,3.8397,3.8417,3.8416,3.8438,3.8419,3.8471,3.8421,3.8492,3.8447,3.8467,3.8472,3.8476,3.848,3.8423,3.8513,3.8663,3.8679,3.8485,3.8483,3.8482,0,3.8235,3.8295,3.8356,3.8369,3.839,3.842,3.843,3.8447,3.847,3.8498,3.8513,3.8546,3.8565,3.8592,3.8583,3.8547,3.8657,3.8606,3.8658,3.8659,3.8682,3.8681,3.8838,3.8695,3.8695,3.8695,3.8694,0,3.835,3.8406,3.8399,3.8436,3.8499,3.8485,3.8547,3.8553,3.857,3.8609,3.8584,3.8621,3.8608,3.8645,3.8639,3.87,3.8708,3.8709,3.8707,3.8711,3.8711,3.8724,3.8717,3.8699,3.8698,3.8697,3.8696,0,3.8464,3.8461,3.8526,3.8542,3.8547,3.8592,3.8605,3.8641,3.8642,3.8692,3.8703,3.8703,3.8746,3.8741,3.8787,3.8783,3.886,3.8848,3.8853,3.885,3.8903,3.8899,3.9074,3.9097,3.8939,3.8941,3.8942,0,3.8537,3.858,3.8601,3.8625,3.8638,3.8678,3.8701,3.8691,3.8716,3.8744,3.8777,3.8817,3.8849,3.8918,3.8923,3.8959,3.8949,3.9008,3.8954,3.8958,3.8951,3.8948,3.8953,3.9018,3.902,3.9022,3.9023,0,3.8669,3.8666,3.8701,3.8737,3.8766,3.8793,3.8817,3.8839,3.8831,3.8861,3.8904,3.8929,3.8978,3.9019,3.9053,3.9064,3.9043,3.904,3.9054,3.9059,3.906,3.9062,3.8882,3.9036,3.9035,3.9034,3.9033,3.9032,3.8765,3.8802,3.8824,3.8864,3.8882,3.8906,3.8941,3.8947,3.8983,3.9023,3.9014,3.9064,3.9085,3.913,3.9144,3.9183,3.9162,3.9182,3.9187,3.9192,3.9199,3.9055,3.9189,3.9189,3.9189,3.9188,3.9188,0,3.8896,3.8909,3.8946,3.8982,3.9015,3.8993,3.902,3.9048,3.9092,3.9114,3.9146,3.9198,3.9238,3.9247,3.9285,3.9315,3.9306,3.9325,3.9323,3.9326,3.9216,3.92,3.9332,3.9332,3.9332,3.9331,3.9331,3.9331,3.8968,3.9031,3.9031,3.9102,3.9114,3.9163,3.9181,3.9203,3.9221,3.9279,3.9313,3.9319,3.9336,3.9376,3.9413,3.9414,3.943,3.9453,3.9451,3.9348,3.9333,3.932,3.9305,3.9456,3.9457,3.9558,3.9559,3.956]},{"header":{"parameterUnit":"m.s-1","parameterCategory":1,"la1":30.2991,"la2":30.254,"lo1":-89.0895,"lo2":-89.0444,"dy":0.0017,"dx":0.0017,"nx":28,"ny":28,"refTime":"2025-04-10T09:00:00:Z","depth":0,"parameterNumber":3,"parameterNumberName":"V-component_of_WINDS"},"data":[0,0,0,0,0,0,0,0,0,0,0,0,0,0,0,0,0,0,0,0,0,0,0,0,0,0,0,0,0,0,0,0,0,0,0,0,0,0,0,0,0,0,0,0,0,0,0,0,0,0,0,0,0,0,0,0,0,0,-5.8553,-5.8554,0,-5.8659,-5.866,-5.8661,-5.8611,-5.8608,-5.8605,-5.8603,-5.8708,-5.8713,-5.8719,0,0,0,0,0,0,0,0,0,0,0,0,0,-5.8305,-5.831,-5.8553,-5.8554,-5.8555,-5.8659,-5.866,-5.8662,-5.8611,-5.8608,-5.8604,-5.8601,-5.8706,-5.8713,-5.8719,0,0,0,0,0,0,0,0,0,0,0,0,0,-5.8412,-5.8311,-5.8553,-5.8543,-5.8543,-5.8658,-5.866,-5.8662,-5.8612,-5.8608,-5.8604,-5.86,-5.8704,-5.8712,-5.872,-5.885,0,0,-5.8744,-5.8748,0,0,0,0,0,0,0,0,-5.8406,-5.8421,-5.8543,-5.8544,-5.8544,-5.8617,-5.8611,-5.8725,-5.8613,-5.8586,-5.8602,-5.8598,-5.8681,-5.8691,-5.8719,-5.8855,-5.886,-5.8745,-5.875,-5.8753,-5.8756,0,0,0,0,0,0,0,-5.8399,-5.8416,-5.8595,-5.8545,-5.8545,-5.8533,-5.8543,-5.8633,-5.8655,-5.8588,-5.8584,-5.8598,-5.8681,-5.8712,-5.8721,-5.8861,-5.8745,-5.8752,-5.8757,-5.876,-5.9111,-5.9115,0,0,0,0,0,0,-5.8392,-5.841,-5.8591,-5.8598,-5.8464,-5.854,-5.8552,-5.8598,-5.8653,-5.8658,-5.8601,-5.8595,-5.87,-5.8712,-5.8725,-5.8882,-5.8753,-5.8761,-5.8765,-5.9106,-5.9112,-5.9117,0,0,0,0,0,0,-5.8387,-5.8408,-5.8587,-5.8503,-5.8525,-5.8549,-5.86,-5.8602,-5.8633,-5.8664,-5.8667,-5.8629,-5.8697,-5.8714,-5.882,-5.8885,-5.8764,-5.8772,-5.9101,-5.9108,-5.9114,-5.9197,0,0,0,0,0,0,-5.838,-5.8407,-5.8457,-5.8505,-5.853,-5.8681,-5.8604,-5.8607,-5.8648,-5.8641,-5.8691,-5.8695,-5.8695,-5.8808,-5.8828,-5.8894,-5.8778,-5.9095,-5.9104,-5.9112,-5.9189,-5.9206,-5.9221,0,0,0,0,0,-5.8371,-5.8475,-5.846,-5.8482,-5.8593,-5.8685,-5.8699,-5.8698,-5.8653,-5.8703,-5.8723,-5.8694,-5.8875,-5.882,-5.8841,-5.8911,-5.9091,-5.9102,-5.9112,-5.9182,-5.9203,-5.922,0,0,0,0,0,0,-5.8433,-5.8481,-5.8465,-5.8587,-5.8633,-5.8676,-5.8739,-5.872,-5.8778,-5.8769,-5.8765,-5.8777,-5.8887,-5.8909,-5.8847,-5.904,-5.8976,-5.8991,-5.9022,-5.9042,-5.9058,-5.905,-5.8785,0,0,0,0,0,-5.8461,-5.8532,-5.857,-5.8675,-5.8698,-5.8716,-5.8755,-5.8751,-5.8797,-5.8816,-5.8843,-5.8889,-5.8956,-5.9,-5.9064,-5.9192,-5.9202,-5.925,-5.9266,-5.9279,-5.9292,-5.9363,-5.9385,-5.915,-5.915,-5.915,0,0,-5.8519,-5.8554,-5.8599,-5.8688,-5.8723,-5.8796,-5.8732,-5.8812,-5.8867,-5.8828,-5.893,-5.8952,-5.9003,-5.9121,-5.9174,-5.9143,-5.9359,-5.9292,-5.9302,-5.9308,-5.9376,-5.9398,-5.9417,-5.9157,-5.9156,-5.9155,0,0,-5.8663,-5.8697,-5.8788,-5.8825,-5.8878,-5.8889,-5.8911,-5.8959,-5.8972,-5.9076,-5.9048,-5.9113,-5.9229,-5.9266,-5.93,-5.9461,-5.9436,-5.9482,-5.9565,-5.9634,-5.9652,-5.9669,-5.9727,-5.9747,-5.9494,-5.9495,-5.9495,0,-5.8728,-5.8839,-5.8837,-5.8921,-5.8961,-5.8931,-5.9023,-5.9058,-5.913,-5.9158,-5.9122,-5.9268,-5.93,-5.9427,-5.9466,-5.9495,-5.952,-5.9476,-5.965,-5.9666,-5.9682,-5.9737,-5.9759,-5.95,-5.9499,-5.9499,-5.9498,0,-5.8917,-5.8994,-5.9061,-5.9133,-5.9181,-5.9268,-5.928,-5.9328,-5.932,-5.9335,-5.9441,-5.9478,-5.955,-5.9579,-5.9571,-5.9706,-5.9685,-5.965,-5.9585,-5.9709,-5.9761,-5.9782,-5.9507,-5.9505,-5.9504,-5.9503,0,0,-5.9101,-5.9172,-5.9197,-5.923,-5.9288,-5.9347,-5.9434,-5.9505,-5.9547,-5.9597,-5.967,-5.977,-5.9738,-5.9777,-5.9773,-5.9834,-5.996,-5.9791,-5.9792,-5.9822,-6.0112,-6.0138,-6.0163,-5.9944,-5.9948,-5.9951,-6.0108,0,-5.9249,-5.9402,-5.9404,-5.9544,-5.9616,-5.9589,-5.9665,-5.9708,-5.9725,-5.9788,-5.9805,-5.9877,-5.9829,-5.9853,-5.9912,-5.9932,-6.0018,-5.9921,-6.0011,-6.0015,-6.0,-6.019,-6.0217,-6.0363,-6.0128,-6.0131,-6.0134,0,-5.9443,-5.9502,-5.9649,-5.9699,-5.9729,-5.9797,-5.9863,-5.9924,-5.9973,-5.9981,-6.0026,-6.0013,-6.0101,-6.0034,-6.0156,-6.009,-6.0127,-6.0143,-6.0149,-6.0157,-6.0082,-6.0203,-6.0409,-6.0431,-6.0165,-6.0163,-6.0161,0,-5.9563,-5.9679,-5.9783,-5.9812,-5.9872,-5.992,-5.9947,-5.9993,-6.0036,-6.0094,-6.0122,-6.0188,-6.0225,-6.0277,-6.0283,-6.0233,-6.0405,-6.0339,-6.0414,-6.0414,-6.0451,-6.0449,-6.0667,-6.0475,-6.0475,-6.0475,-6.0474,0,-5.9729,-5.982,-5.9838,-5.9902,-6.0004,-6.0006,-6.0106,-6.0129,-6.0171,-6.0238,-6.0219,-6.0282,-6.0287,-6.0352,-6.0358,-6.0458,-6.0474,-6.0483,-6.0483,-6.0485,-6.0484,-6.0509,-6.0499,-6.048,-6.0479,-6.0478,-6.0477,0,-5.988,-5.9896,-6.0008,-6.0056,-6.007,-6.0144,-6.0185,-6.0246,-6.0261,-6.0347,-6.0367,-6.0391,-6.0467,-6.0479,-6.0568,-6.0571,-6.0692,-6.0682,-6.0676,-6.0675,-6.075,-6.0743,-6.0992,-6.1025,-6.0811,-6.0813,-6.0815,0,-5.9985,-6.0055,-6.0112,-6.0157,-6.0187,-6.0259,-6.0303,-6.0308,-6.0355,-6.0418,-6.0471,-6.0546,-6.0606,-6.0729,-6.0754,-6.0822,-6.0814,-6.0896,-6.0824,-6.0824,-6.0816,-6.0812,-6.0819,-6.091,-6.0912,-6.0914,-6.0916,0,-6.017,-6.0175,-6.024,-6.0309,-6.0363,-6.0417,-6.0468,-6.0506,-6.0517,-6.0571,-6.065,-6.0697,-6.0789,-6.0863,-6.0932,-6.0959,-6.094,-6.0939,-6.096,-6.0962,-6.0956,-6.0961,-6.0715,-6.0933,-6.0931,-6.093,-6.0929,-6.0928,-6.0301,-6.0363,-6.0413,-6.0487,-6.0527,-6.0575,-6.0636,-6.0659,-6.0726,-6.0802,-6.08,-6.0887,-6.0936,-6.1026,-6.1058,-6.1125,-6.1098,-6.1129,-6.1137,-6.1144,-6.1152,-6.0946,-6.1138,-6.1137,-6.1137,-6.1136,-6.1136,0,-6.0485,-6.0517,-6.0585,-6.0658,-6.0717,-6.0695,-6.0751,-6.0801,-6.0878,-6.0926,-6.0986,-6.1077,-6.115,-6.1181,-6.1253,-6.1301,-6.1294,-6.132,-6.1316,-6.1323,-6.1172,-6.1147,-6.1324,-6.1324,-6.1324,-6.1324,-6.1324,-6.1324,-6.0588,-6.0692,-6.0703,-6.0826,-6.0857,-6.0943,-6.0977,-6.1022,-6.106,-6.1163,-6.1224,-6.1245,-6.1286,-6.1361,-6.1427,-6.1434,-6.1461,-6.1491,-6.1495,-6.1353,-6.1334,-6.1315,-6.1292,-6.1497,-6.1497,-6.164,-6.1642,-6.1643]}]]